Time,TemperatureF,DewpointF,PressureIn,WindDirection,WindDirectionDegrees,WindSpeedMPH,WindSpeedGustMPH,Humidity,HourlyPrecipIn,Conditions,Clouds,dailyrainin,SolarRadiationWatts/m^2,SoftwareType,DateUTC
2013-07-19 00:01:00,52.0,51.0,-100.00,NNW,329,1.0,2.0,98,0.00,,,0.69,0.000000,,2013-07-19 06:01:00,
2013-07-19 00:11:00,52.0,51.0,-100.00,NNW,329,1.0,2.0,98,0.00,,,0.69,0.000000,,2013-07-19 06:11:00,
2013-07-19 00:22:00,52.0,51.0,-100.00,NNW,329,1.0,2.0,98,0.00,,,0.69,0.000000,,2013-07-19 06:22:00,
2013-07-19 00:43:00,52.0,51.0,-100.00,WNW,298,2.0,3.0,95,0.00,,,0.69,0.000000,,2013-07-19 06:43:00,
2013-07-19 00:53:00,52.0,51.0,-100.00,WNW,298,2.0,3.0,95,0.00,,,0.69,0.000000,,2013-07-19 06:53:00,
2013-07-19 01:01:00,52.0,51.0,-100.00,WNW,298,2.0,3.0,95,0.00,,,0.69,0.000000,,2013-07-19 07:01:00,
2013-07-19 01:12:00,52.0,51.0,-100.00,WNW,298,2.0,3.0,95,0.00,,,0.69,0.000000,,2013-07-19 07:12:00,
2013-07-19 01:22:00,52.0,51.0,-100.00,WNW,298,2.0,3.0,95,0.00,,,0.69,0.000000,,2013-07-19 07:22:00,
2013-07-19 01:43:00,51.0,50.0,-100.00,NW,307,1.0,3.0,98,0.00,,,-99.99,0.000000,,2013-07-19 07:43:00,
2013-07-19 01:53:00,51.0,50.0,-100.00,NW,307,1.0,3.0,98,0.00,,,-99.99,0.000000,,2013-07-19 07:53:00,
2013-07-19 02:01:00,51.0,50.0,-100.00,NW,307,1.0,3.0,98,0.00,,,-99.99,0.000000,,2013-07-19 08:01:00,
2013-07-19 02:11:00,51.0,50.0,-100.00,NW,307,1.0,3.0,98,0.00,,,-99.99,0.000000,,2013-07-19 08:11:00,
2013-07-19 02:22:00,51.0,50.0,-100.00,NW,307,1.0,3.0,98,0.00,,,-99.99,0.000000,,2013-07-19 08:22:00,
2013-07-19 02:43:00,50.0,49.0,-100.00,NW,319,2.0,3.0,97,0.00,,,-99.99,0.000000,,2013-07-19 08:43:00,
2013-07-19 02:52:00,50.0,49.0,-100.00,NW,319,2.0,3.0,97,0.00,,,-99.99,0.000000,,2013-07-19 08:52:00,
2013-07-19 03:02:00,50.0,49.0,-100.00,NW,319,2.0,3.0,97,0.00,,,-99.99,0.000000,,2013-07-19 09:02:00,
2013-07-19 03:11:00,50.0,49.0,-100.00,NW,319,2.0,3.0,97,0.00,,,-99.99,0.000000,,2013-07-19 09:11:00,
2013-07-19 03:22:00,50.0,49.0,-100.00,NW,319,2.0,3.0,97,0.00,,,-99.99,0.000000,,2013-07-19 09:22:00,
2013-07-19 03:52:00,49.0,48.0,-100.00,NW,312,2.0,3.0,97,0.00,,,0.69,0.000000,,2013-07-19 09:52:00,
2013-07-19 04:01:00,49.0,48.0,-100.00,NW,312,2.0,3.0,97,0.00,,,0.69,0.000000,,2013-07-19 10:01:00,
2013-07-19 04:11:00,49.0,48.0,-100.00,NW,312,2.0,3.0,97,0.00,,,0.69,0.000000,,2013-07-19 10:11:00,
2013-07-19 04:22:00,49.0,48.0,-100.00,NW,312,2.0,3.0,97,0.00,,,0.69,0.000000,,2013-07-19 10:22:00,
2013-07-19 04:43:00,49.0,48.0,-100.00,West,279,2.0,3.0,98,0.00,,,0.69,0.000000,,2013-07-19 10:43:00,
2013-07-19 04:52:00,49.0,48.0,-100.00,West,279,2.0,3.0,98,0.00,,,0.69,0.000000,,2013-07-19 10:52:00,
2013-07-19 05:02:00,49.0,48.0,-100.00,West,279,2.0,3.0,98,0.00,,,0.69,0.000000,,2013-07-19 11:02:00,
2013-07-19 05:12:00,49.0,48.0,-100.00,West,279,2.0,3.0,98,0.00,,,0.69,0.000000,,2013-07-19 11:12:00,
2013-07-19 05:22:00,49.0,48.0,-100.00,West,279,2.0,3.0,98,0.00,,,0.69,0.000000,,2013-07-19 11:22:00,
2013-07-19 05:43:00,48.0,47.0,-100.00,NW,307,2.0,2.0,97,0.00,,,-99.99,0.000000,,2013-07-19 11:43:00,
2013-07-19 05:52:00,48.0,47.0,-100.00,NW,307,2.0,2.0,97,0.00,,,-99.99,0.000000,,2013-07-19 11:52:00,
2013-07-19 06:01:00,48.0,47.0,-100.00,NW,307,2.0,2.0,97,0.00,,,-99.99,0.000000,,2013-07-19 12:01:00,
2013-07-19 06:12:00,48.0,47.0,-100.00,NW,307,2.0,2.0,97,0.00,,,-99.99,0.000000,,2013-07-19 12:12:00,
2013-07-19 06:22:00,48.0,47.0,-100.00,NW,307,2.0,2.0,97,0.00,,,-99.99,0.000000,,2013-07-19 12:22:00,
2013-07-19 06:44:00,48.0,47.0,-100.00,WNW,299,2.0,3.0,98,0.00,,,0.69,5.000000,,2013-07-19 12:44:00,
2013-07-19 06:52:00,48.0,47.0,-100.00,WNW,299,2.0,3.0,98,0.00,,,0.69,5.000000,,2013-07-19 12:52:00,
2013-07-19 07:02:00,48.0,47.0,-100.00,WNW,299,2.0,3.0,98,0.00,,,0.69,5.000000,,2013-07-19 13:02:00,
2013-07-19 07:12:00,48.0,47.0,-100.00,WNW,299,2.0,3.0,98,0.00,,,0.69,5.000000,,2013-07-19 13:12:00,
2013-07-19 07:22:00,48.0,47.0,-100.00,WNW,299,2.0,3.0,98,0.00,,,0.69,5.000000,,2013-07-19 13:22:00,
2013-07-19 07:43:00,57.0,51.0,-100.00,NE,36,1.0,2.0,80,0.00,,,0.69,173.000000,,2013-07-19 13:43:00,
2013-07-19 07:53:00,57.0,51.0,-100.00,NE,36,1.0,2.0,80,0.00,,,0.69,173.000000,,2013-07-19 13:53:00,
2013-07-19 08:02:00,57.0,51.0,-100.00,NE,36,1.0,2.0,80,0.00,,,0.69,173.000000,,2013-07-19 14:02:00,
2013-07-19 08:11:00,57.0,51.0,-100.00,NE,36,1.0,2.0,80,0.00,,,0.69,173.000000,,2013-07-19 14:11:00,
2013-07-19 08:22:00,57.0,51.0,-100.00,NE,36,1.0,2.0,80,0.00,,,0.69,173.000000,,2013-07-19 14:22:00,
2013-07-19 08:43:00,55.0,51.0,-100.00,SE,131,1.0,2.0,85,0.00,,,0.69,169.000000,,2013-07-19 14:43:00,
2013-07-19 08:53:00,55.0,51.0,-100.00,SE,131,1.0,2.0,85,0.00,,,0.69,169.000000,,2013-07-19 14:53:00,
2013-07-19 09:02:00,55.0,51.0,-100.00,SE,131,1.0,2.0,85,0.00,,,0.69,169.000000,,2013-07-19 15:02:00,
2013-07-19 09:11:00,55.0,51.0,-100.00,SE,131,1.0,2.0,85,0.00,,,0.69,169.000000,,2013-07-19 15:11:00,
2013-07-19 09:22:00,55.0,51.0,-100.00,SE,131,1.0,2.0,85,0.00,,,0.69,169.000000,,2013-07-19 15:22:00,
2013-07-19 09:52:00,57.0,51.0,-100.00,NE,37,2.0,3.0,80,0.00,,,0.69,300.000000,,2013-07-19 15:52:00,
2013-07-19 10:01:00,57.0,51.0,-100.00,NE,37,2.0,3.0,80,0.00,,,0.69,300.000000,,2013-07-19 16:01:00,
2013-07-19 10:11:00,57.0,51.0,-100.00,NE,37,2.0,3.0,80,0.00,,,0.69,300.000000,,2013-07-19 16:11:00,
2013-07-19 10:22:00,57.0,51.0,-100.00,NE,37,2.0,3.0,80,0.00,,,0.69,300.000000,,2013-07-19 16:22:00,
2013-07-19 10:43:00,64.0,52.0,-100.00,SE,138,2.0,3.0,64,0.00,,,0.69,803.000000,,2013-07-19 16:43:00,
2013-07-19 10:53:00,64.0,52.0,-100.00,SE,138,2.0,3.0,64,0.00,,,0.69,803.000000,,2013-07-19 16:53:00,
2013-07-19 11:02:00,64.0,52.0,-100.00,SE,138,2.0,3.0,64,0.00,,,0.69,803.000000,,2013-07-19 17:02:00,
2013-07-19 11:12:00,64.0,52.0,-100.00,SE,138,2.0,3.0,64,0.00,,,0.69,803.000000,,2013-07-19 17:12:00,
2013-07-19 11:22:00,64.0,52.0,-100.00,SE,138,2.0,3.0,64,0.00,,,0.69,803.000000,,2013-07-19 17:22:00,
2013-07-19 11:43:00,69.0,50.0,-100.00,SE,137,3.0,4.0,50,0.00,,,0.69,1033.000000,,2013-07-19 17:43:00,
2013-07-19 11:52:00,69.0,50.0,-100.00,SE,137,3.0,4.0,50,0.00,,,0.69,1033.000000,,2013-07-19 17:52:00,
2013-07-19 12:01:00,69.0,50.0,-100.00,SE,137,3.0,4.0,50,0.00,,,0.69,1033.000000,,2013-07-19 18:01:00,
2013-07-19 12:11:00,69.0,50.0,-100.00,SE,137,3.0,4.0,50,0.00,,,0.69,1033.000000,,2013-07-19 18:11:00,
2013-07-19 12:21:00,69.0,50.0,-100.00,SE,137,3.0,4.0,50,0.00,,,0.69,1033.000000,,2013-07-19 18:21:00,
2013-07-19 12:43:00,71.0,47.0,-100.00,SE,138,3.0,5.0,42,0.00,,,0.69,1078.000000,,2013-07-19 18:43:00,
2013-07-19 12:52:00,71.0,47.0,-100.00,SE,138,3.0,5.0,42,0.00,,,0.69,1078.000000,,2013-07-19 18:52:00,
2013-07-19 13:01:00,71.0,47.0,-100.00,SE,138,3.0,5.0,42,0.00,,,0.69,1078.000000,,2013-07-19 19:01:00,
2013-07-19 13:11:00,71.0,47.0,-100.00,SE,138,3.0,5.0,42,0.00,,,0.69,1078.000000,,2013-07-19 19:11:00,
2013-07-19 13:21:00,71.0,47.0,-100.00,SE,138,3.0,5.0,42,0.00,,,0.69,1078.000000,,2013-07-19 19:21:00,
2013-07-19 13:43:00,74.0,47.0,-100.00,East,84,3.0,7.0,39,0.00,,,0.69,1228.000000,,2013-07-19 19:43:00,
2013-07-19 13:52:00,74.0,47.0,-100.00,East,84,3.0,7.0,39,0.00,,,0.69,1228.000000,,2013-07-19 19:52:00,
2013-07-19 14:01:00,74.0,47.0,-100.00,East,84,3.0,7.0,39,0.00,,,0.69,1228.000000,,2013-07-19 20:01:00,
2013-07-19 14:11:00,74.0,47.0,-100.00,East,84,3.0,7.0,39,0.00,,,0.69,1228.000000,,2013-07-19 20:11:00,
2013-07-19 14:22:00,74.0,47.0,-100.00,East,84,3.0,7.0,39,0.00,,,0.69,1228.000000,,2013-07-19 20:22:00,
2013-07-19 14:52:00,72.0,46.0,-100.00,SSW,207,3.0,8.0,40,0.00,,,0.69,902.000000,,2013-07-19 20:52:00,
2013-07-19 15:01:00,72.0,46.0,-100.00,SSW,207,3.0,8.0,40,0.00,,,0.69,902.000000,,2013-07-19 21:01:00,
2013-07-19 15:11:00,72.0,46.0,-100.00,SSW,207,3.0,8.0,40,0.00,,,0.69,902.000000,,2013-07-19 21:11:00,
2013-07-19 15:21:00,72.0,46.0,-100.00,SSW,207,3.0,8.0,40,0.00,,,0.69,902.000000,,2013-07-19 21:21:00,
2013-07-19 16:52:00,57.0,54.0,-100.00,WNW,303,3.0,6.0,91,-99.99,,,1.13,91.000000,,2013-07-19 22:52:00,
2013-07-19 17:01:00,57.0,54.0,-100.00,WNW,303,3.0,6.0,91,-99.99,,,1.13,91.000000,,2013-07-19 23:01:00,
2013-07-19 17:11:00,57.0,54.0,-100.00,WNW,303,3.0,6.0,91,-99.99,,,1.13,91.000000,,2013-07-19 23:11:00,
2013-07-19 17:21:00,57.0,54.0,-100.00,WNW,303,3.0,6.0,91,-99.99,,,1.13,91.000000,,2013-07-19 23:21:00,
2013-07-19 17:43:00,62.0,53.0,-100.00,SSE,159,3.0,4.0,72,0.01,,,1.04,357.000000,,2013-07-19 23:43:00,
2013-07-19 17:52:00,62.0,53.0,-100.00,SSE,159,3.0,4.0,72,0.01,,,1.04,357.000000,,2013-07-19 23:52:00,
2013-07-19 18:01:00,62.0,53.0,-100.00,SSE,159,3.0,4.0,72,0.01,,,1.04,357.000000,,2013-07-20 00:01:00,
2013-07-19 18:11:00,62.0,53.0,-100.00,SSE,159,3.0,4.0,72,0.01,,,1.04,357.000000,,2013-07-20 00:11:00,
2013-07-19 18:22:00,62.0,53.0,-100.00,SSE,159,3.0,4.0,72,0.01,,,1.04,357.000000,,2013-07-20 00:22:00,
2013-07-19 18:52:00,60.0,55.0,-100.00,ESE,105,3.0,4.0,83,0.00,,,0.86,169.000000,,2013-07-20 00:52:00,
2013-07-19 19:01:00,60.0,55.0,-100.00,ESE,105,3.0,4.0,83,0.00,,,0.86,169.000000,,2013-07-20 01:01:00,
2013-07-19 19:11:00,60.0,55.0,-100.00,ESE,105,3.0,4.0,83,0.00,,,0.86,169.000000,,2013-07-20 01:11:00,
2013-07-19 19:22:00,60.0,55.0,-100.00,ESE,105,3.0,4.0,83,0.00,,,0.86,169.000000,,2013-07-20 01:22:00,
2013-07-19 19:52:00,58.0,55.0,-100.00,NE,35,2.0,3.0,91,0.00,,,0.54,68.000000,,2013-07-20 01:52:00,
2013-07-19 20:02:00,58.0,55.0,-100.00,NE,35,2.0,3.0,91,0.00,,,0.54,68.000000,,2013-07-20 02:02:00,
2013-07-19 20:11:00,58.0,55.0,-100.00,NE,35,2.0,3.0,91,0.00,,,0.54,68.000000,,2013-07-20 02:11:00,
2013-07-19 20:22:00,58.0,55.0,-100.00,NE,35,2.0,3.0,91,0.00,,,0.54,68.000000,,2013-07-20 02:22:00,
2013-07-19 20:44:00,56.0,55.0,-100.00,NNW,329,1.0,3.0,97,0.00,,,0.46,29.000000,,2013-07-20 02:44:00,
2013-07-19 20:52:00,56.0,55.0,-100.00,NNW,329,1.0,3.0,97,0.00,,,0.46,29.000000,,2013-07-20 02:52:00,
2013-07-19 21:02:00,56.0,55.0,-100.00,NNW,329,1.0,3.0,97,0.00,,,0.46,29.000000,,2013-07-20 03:02:00,
2013-07-19 21:11:00,56.0,55.0,-100.00,NNW,329,1.0,3.0,97,0.00,,,0.46,29.000000,,2013-07-20 03:11:00,
2013-07-19 21:22:00,56.0,55.0,-100.00,NNW,329,1.0,3.0,97,0.00,,,0.46,29.000000,,2013-07-20 03:22:00,
2013-07-19 21:53:00,54.0,53.0,-100.00,West,262,2.0,3.0,98,0.00,,,0.46,2.000000,,2013-07-20 03:53:00,
2013-07-19 22:02:00,54.0,53.0,-100.00,West,262,2.0,3.0,98,0.00,,,0.46,2.000000,,2013-07-20 04:02:00,
2013-07-19 22:12:00,54.0,53.0,-100.00,West,262,2.0,3.0,98,0.00,,,0.46,2.000000,,2013-07-20 04:12:00,
2013-07-19 22:22:00,54.0,53.0,-100.00,West,262,2.0,3.0,98,0.00,,,0.46,2.000000,,2013-07-20 04:22:00,
2013-07-19 22:52:00,54.0,53.0,-100.00,WNW,283,1.0,3.0,95,0.00,,,0.45,0.000000,,2013-07-20 04:52:00,
2013-07-19 23:02:00,54.0,53.0,-100.00,WNW,283,1.0,3.0,95,0.00,,,0.45,0.000000,,2013-07-20 05:02:00,
2013-07-19 23:12:00,54.0,53.0,-100.00,WNW,283,1.0,3.0,95,0.00,,,0.45,0.000000,,2013-07-20 05:12:00,
2013-07-19 23:22:00,54.0,53.0,-100.00,WNW,283,1.0,3.0,95,0.00,,,0.45,0.000000,,2013-07-20 05:22:00,
2013-07-19 23:52:00,52.0,50.0,-100.00,WNW,292,2.0,3.0,92,0.00,,,0.45,0.000000,,2013-07-20 05:52:00,